Weather History for KTEX - October, 2014

Change the Weather History Date:

Wednesday, October 22, 2014

  Actual Average Record
Temperature  
Mean Temperature 46 °F -  
Max Temperature 54 °F 45 °F 57 °F (2013)
Min Temperature 39 °F 29 °F 14 °F (1996)
Degree Days  
Heating Degree Days 18    
Moisture  
Dew Point 33 °F    
Average Humidity 63    
Maximum Humidity 83    
Minimum Humidity 40    
Precipitation  
Precipitation 0.00 in - - ()
Sea Level Pressure  
Sea Level Pressure 30.33 in    
Wind  
Wind Speed 4 mph (South)    
Max Wind Speed 12 mph    
Max Gust Speed 23 mph    
Visibility 10 miles    
Events Rain    
Averages and records for this station are not official NWS values.
T = Trace of Precipitation, MM = Missing Value Source: NWS Daily Summary

Daily Weather History Graph

Daily Weather History Graph

Search for Another Location

Airport or City:

Trip Planner

Search our weather history database for the weather conditions in past years. The results will help you decide how hot, cold, wet, or windy it might be!

Date:

Astronomy

Oct. 22, 2014 Rise Set
Actual Time 7:27 AM MDT 6:24 PM MDT
Civil Twilight 7:00 AM MDT 6:51 PM MDT
Nautical Twilight 6:29 AM MDT 7:21 PM MDT
Astronomical Twilight 5:59 AM MDT 7:52 PM MDT
Moon 6:12 AM MDT (10/22) 5:52 PM MDT (10/22)
Length of Visible Light 11h 50m
Length of Day
10h 57m
Waning Crescent, 1% of the Moon is Illuminated
Oct 22
Waning Crescent
Oct 23
New
Oct 30
First Quarter
Nov 6
Full
Nov 14
Last Quarter

Hourly Weather History & Observations

Time (MDT) Temp. Windchill Dew Point Humidity Pressure Visibility Wind Dir Wind Speed Gust Speed Precip Events Conditions
12:35 AM 42.3 °F 38.6 °F 34.9 °F 75% 30.25 in 10.0 mi ESE 5.8 mph - N/A   Clear
1:15 AM 41.4 °F 37.6 °F 34.9 °F 78% 30.26 in 10.0 mi East 5.8 mph - N/A   Clear
1:35 AM 40.5 °F 37.3 °F 34.2 °F 78% 30.26 in 10.0 mi ESE 4.6 mph - N/A   Clear
1:55 AM 41.5 °F - 33.8 °F 74% 30.26 in 10.0 mi Calm Calm - N/A   Clear
2:15 AM 42.1 °F 40.2 °F 33.8 °F 72% 30.26 in 10.0 mi ESE 3.5 mph - N/A   Clear
2:35 AM 41.5 °F - 33.3 °F 72% 30.26 in 10.0 mi Calm Calm - N/A   Clear
3:15 AM 41.0 °F 37.1 °F 34.0 °F 76% 30.26 in 10.0 mi SE 5.8 mph - N/A   Scattered Clouds
3:55 AM 41.7 °F - 33.8 °F 73% 30.26 in 10.0 mi Calm Calm - N/A   Overcast
4:15 AM 41.7 °F - 34.0 °F 74% 30.26 in 10.0 mi Calm Calm - N/A   Overcast
4:35 AM 40.6 °F 36.7 °F 34.3 °F 78% 30.26 in 10.0 mi ESE 5.8 mph - N/A   Overcast
4:55 AM 41.0 °F 38.0 °F 35.1 °F 79% 30.26 in 10.0 mi SE 4.6 mph - N/A   Mostly Cloudy
5:15 AM 40.6 °F 37.5 °F 35.4 °F 82% 30.27 in 10.0 mi SE 4.6 mph - N/A   Scattered Clouds
5:35 AM 39.6 °F 36.3 °F 34.0 °F 80% 30.27 in 10.0 mi ESE 4.6 mph - N/A   Clear
6:15 AM 40.3 °F 37.1 °F 35.6 °F 83% 30.29 in 10.0 mi SE 4.6 mph - N/A   Mostly Cloudy
7:35 AM 39.2 °F 35.9 °F 34.2 °F 82% 30.29 in 10.0 mi ESE 4.6 mph - N/A   Mostly Cloudy
7:55 AM 39.4 °F - 34.5 °F 83% 30.30 in 10.0 mi Calm Calm - N/A   Mostly Cloudy
8:15 AM 39.7 °F 36.5 °F 34.7 °F 82% 30.31 in 10.0 mi SE 4.6 mph - N/A   Mostly Cloudy
8:35 AM 40.1 °F - 35.4 °F 83% 30.32 in 10.0 mi Calm Calm - N/A   Mostly Cloudy
8:55 AM 41.7 °F - 35.2 °F 78% 30.33 in 10.0 mi Calm Calm - N/A   Mostly Cloudy
9:15 AM 42.4 °F - 35.8 °F 77% 30.33 in 10.0 mi Calm Calm - N/A   Mostly Cloudy
9:35 AM 43.9 °F - 34.0 °F 68% 30.33 in 10.0 mi Calm Calm - N/A   Mostly Cloudy
9:55 AM 45.3 °F - 35.6 °F 69% 30.34 in 10.0 mi Calm Calm - N/A Rain Light Rain
10:15 AM 48.9 °F - 35.4 °F 60% 30.34 in 10.0 mi Calm Calm - N/A   Overcast
10:35 AM 50.0 °F - 35.4 °F 57% 30.34 in 10.0 mi Calm Calm - N/A   Mostly Cloudy
10:55 AM 50.4 °F - 35.8 °F 57% 30.34 in 10.0 mi SSE 3.5 mph - N/A   Scattered Clouds
11:15 AM 49.1 °F - 34.7 °F 58% 30.34 in 10.0 mi North 3.5 mph - N/A Rain Light Rain
11:35 AM 51.6 °F - 35.1 °F 53% 30.33 in 10.0 mi Calm Calm - N/A   Mostly Cloudy
11:55 AM 54.0 °F - 34.0 °F 47% 30.33 in 10.0 mi West 6.9 mph - N/A   Mostly Cloudy
12:15 PM 53.6 °F - 31.1 °F 42% 30.33 in 10.0 mi NW 5.8 mph - N/A   Overcast
12:35 PM 52.9 °F - 28.8 °F 40% 30.33 in 10.0 mi WSW 11.5 mph 23.0 mph N/A   Mostly Cloudy
12:55 PM 52.3 °F - 31.5 °F 45% 30.33 in 10.0 mi SW 6.9 mph 17.3 mph N/A   Mostly Cloudy
1:15 PM 51.6 °F - 32.0 °F 47% 30.33 in 10.0 mi SW 9.2 mph - N/A   Overcast
1:35 PM 52.2 °F - 32.2 °F 47% 30.33 in 10.0 mi SSW 9.2 mph - N/A   Overcast
1:55 PM 51.3 °F - 32.0 °F 48% 30.33 in 10.0 mi SSW 3.5 mph - N/A   Overcast
2:15 PM 51.8 °F - 33.1 °F 49% 30.32 in 10.0 mi West 8.1 mph - N/A   Overcast
2:35 PM 51.1 °F - 33.8 °F 52% 30.32 in 10.0 mi WNW 3.5 mph - N/A Thunderstorm Overcast
2:55 PM 52.3 °F - 32.5 °F 47% 30.32 in 10.0 mi WSW 8.1 mph - N/A   Mostly Cloudy
3:15 PM 52.2 °F - 32.7 °F 48% 30.32 in 10.0 mi West 6.9 mph - N/A   Mostly Cloudy
3:35 PM 53.6 °F - 31.5 °F 43% 30.32 in 10.0 mi SW 5.8 mph - N/A   Overcast
3:55 PM 53.6 °F - 32.0 °F 44% 30.32 in 10.0 mi West 6.9 mph - N/A   Overcast
4:15 PM 52.2 °F - 32.0 °F 46% 30.32 in 10.0 mi West 4.6 mph - N/A   Overcast
4:35 PM 52.2 °F - 32.2 °F 47% 30.32 in 10.0 mi Calm Calm - N/A Rain Light Rain
4:55 PM 52.3 °F - 31.8 °F 46% 30.33 in 10.0 mi West 4.6 mph - N/A   Overcast
5:15 PM 52.3 °F - 30.4 °F 43% 30.33 in 10.0 mi WSW 5.8 mph - N/A   Overcast
5:35 PM 52.2 °F - 31.5 °F 45% 30.33 in 10.0 mi West 10.4 mph - N/A   Overcast
5:55 PM 51.1 °F - 32.0 °F 48% 30.33 in 10.0 mi West 4.6 mph - N/A   Overcast
6:15 PM 50.9 °F - 32.2 °F 49% 30.34 in 10.0 mi West 5.8 mph - N/A   Overcast
6:35 PM 50.4 °F - 32.2 °F 50% 30.35 in 10.0 mi NW 3.5 mph - N/A   Overcast
6:55 PM 50.0 °F - 32.7 °F 52% 30.35 in 10.0 mi West 5.8 mph - N/A   Overcast
7:15 PM 49.1 °F - 32.9 °F 54% 30.36 in 10.0 mi West 4.6 mph - N/A   Mostly Cloudy
7:35 PM 48.4 °F - 33.1 °F 56% 30.36 in 10.0 mi West 4.6 mph - N/A   Scattered Clouds
7:55 PM 48.2 °F - 32.7 °F 55% 30.37 in 10.0 mi Calm Calm - N/A   Clear
8:55 PM 45.3 °F 42.3 °F 34.2 °F 65% 30.37 in 10.0 mi SE 5.8 mph - N/A   Mostly Cloudy
9:15 PM 44.4 °F 42.9 °F 33.3 °F 65% 30.38 in 10.0 mi East 3.5 mph - N/A   Mostly Cloudy
9:35 PM 45.0 °F 41.8 °F 32.9 °F 63% 30.38 in 10.0 mi ESE 5.8 mph - N/A   Scattered Clouds
9:55 PM 43.7 °F 40.3 °F 33.1 °F 66% 30.39 in 10.0 mi ESE 5.8 mph - N/A   Clear
10:15 PM 43.5 °F 40.1 °F 33.1 °F 67% 30.39 in 10.0 mi ESE 5.8 mph - N/A   Clear
10:35 PM 43.2 °F 39.7 °F 33.4 °F 69% 30.40 in 10.0 mi ESE 5.8 mph - N/A   Clear
10:55 PM 43.0 °F 40.3 °F 33.1 °F 68% 30.40 in 10.0 mi ESE 4.6 mph - N/A   Clear
11:15 PM 41.9 °F 39.0 °F 33.1 °F 71% 30.40 in 10.0 mi ESE 4.6 mph - N/A   Clear
11:35 PM 41.2 °F 37.3 °F 34.0 °F 76% 30.40 in 10.0 mi SE 5.8 mph - N/A   Clear
11:55 PM 41.0 °F 37.1 °F 33.4 °F 74% 30.40 in 10.0 mi SE 5.8 mph - N/A   Clear